Location: Chemnitz
(49.5500°N, 11.5830°E)
Time: 06:38:54
(UTC+01:00)

ISS - Pass Details

Date: 04 January 2018
Orbit: 402 x 407 km, 51.6° (Epoch: 18 January)

Event Time Altitude Azimuth Distance (km) Brightness Sun altitude
Exits shadow 06:53:39 19° 284° (WNW) 1,028 -2.4 -11.7°
Maximum altitude 06:55:47 57° 359° (N) 486 -3.6 -11.4°
Drops below altitude 10° 06:59:02 10° 79° (E) 1,472 -0.1 -10.9°
Sets 07:01:09 0° 84° (E) 2,333 1.2 -10.6°
